CW7615 Frigiliana ES current weather conditions

sailwx.info

Wind from 192 at 0 knots gusting 3

Air temperature 24.4° C
Dewpoint 16.4° C

Last reported at 2020-Sep-19 09:08 UTC.
Time now 2020-Sep-19 09:42 UTC

Location: N 36°47' W 003°54'.
View on Google Maps.

See reports from other nearby stations

  
Tides and Currents Weather Stations Pressure Air Temp Water Temp Dewpoint Dewpoint Depression Visibility Wind Speed Wind Dir Waves Ship Positions
date/time (UTC)wind fromknots sea level pressurealtimeterstation pressurevisibilityair tempwater tempwave heightnotes
2020-Sep-19 09:08 192 0 gusting 3 24.4
2020-Sep-19 09:05 215 1 gusting 3 24.4
2020-Sep-19 08:59 123 24.4
2020-Sep-19 08:54 122 0 gusting 2 23.9
2020-Sep-19 08:49 122 0 gusting 2 23.9
2020-Sep-19 08:44 112 0 gusting 5 23.9
2020-Sep-19 08:39 088 2 gusting 6 23.3
2020-Sep-19 08:34 155 2 gusting 6 23.3
2020-Sep-19 08:29 130 3 gusting 6 23.9
2020-Sep-19 08:24 105 1 gusting 2 23.3
2020-Sep-19 08:20 117 1 gusting 2 23.3
2020-Sep-19 08:14 116 0 gusting 1 22.8
2020-Sep-19 08:10 111 0 gusting 1 23.3
2020-Sep-19 08:04 013 0 gusting 1 22.8
2020-Sep-19 08:00 005 22.2
2020-Sep-19 07:55 005 1 gusting 5 22.2
2020-Sep-19 07:49 331 3 gusting 5 21.7
2020-Sep-19 07:44 005 2 gusting 3 21.7
2020-Sep-19 07:39 345 1 gusting 3 21.1
2020-Sep-19 07:34 005 1 gusting 4 21.1
2020-Sep-19 07:29 355 2 gusting 4 20.6
2020-Sep-19 07:24 317 3 gusting 5 20.0
2020-Sep-19 07:19 329 2 gusting 5 20.0
2020-Sep-19 07:14 345 3 gusting 5 19.4
2020-Sep-19 07:09 355 3 gusting 4 18.9
2020-Sep-19 07:04 351 2 gusting 5 18.9
2020-Sep-19 06:59 360 4 gusting 5 18.9
2020-Sep-19 06:55 338 2 gusting 6 18.3
2020-Sep-19 06:48 329 4 gusting 6 18.3
2020-Sep-19 06:44 316 3 gusting 5 18.3
2020-Sep-19 06:39 345 3 gusting 5 18.3
2020-Sep-19 06:34 342 4 gusting 5 18.3
2020-Sep-19 06:29 355 1 gusting 5 18.3
2020-Sep-19 06:24 329 1 gusting 4 18.3
2020-Sep-19 06:19 355 3 gusting 4 18.3
2020-Sep-19 06:14 360 1 gusting 3 18.3
2020-Sep-19 06:09 338 1 gusting 5 18.3
2020-Sep-19 06:04 325 2 gusting 6 18.3
2020-Sep-19 05:59 360 3 gusting 6 18.3
2020-Sep-19 05:54 351 4 gusting 7 18.3
2020-Sep-19 05:49 350 4 gusting 7 18.3
2020-Sep-19 05:45 346 1 gusting 2 18.3
2020-Sep-19 05:40 355 0 gusting 1 18.3
2020-Sep-19 05:35 345 18.3
2020-Sep-19 05:29 345 18.3
2020-Sep-19 05:24 013 1 gusting 5 18.3
2020-Sep-19 05:19 342 1 gusting 4 18.3
2020-Sep-19 05:14 005 1 gusting 4 18.3
2020-Sep-19 05:09 322 1 gusting 3 18.3
2020-Sep-19 05:04 360 2 gusting 4 18.3
2020-Sep-19 04:59 360 1 gusting 6 18.3
2020-Sep-19 04:54 329 3 gusting 6 18.3
2020-Sep-19 04:49 344 1 gusting 3 18.3
2020-Sep-19 04:44 338 18.3
2020-Sep-19 04:40 319 0 gusting 2 18.3
2020-Sep-19 04:35 316 0 gusting 3 18.3
2020-Sep-19 04:29 005 0 gusting 3 18.9
2020-Sep-19 04:24 355 0 gusting 1 18.9
2020-Sep-19 04:19 340 18.9
2020-Sep-19 04:14 340 18.9
2020-Sep-19 04:09 005 1 gusting 5 18.9
2020-Sep-19 04:04 011 2 gusting 5 18.9
2020-Sep-19 03:59 355 2 gusting 5 18.9
2020-Sep-19 03:54 338 0 gusting 6 18.9
2020-Sep-19 03:49 342 2 gusting 6 18.9
2020-Sep-19 03:44 026 3 gusting 6 18.9
2020-Sep-19 03:39 355 3 gusting 6 18.9
2020-Sep-19 03:34 328 2 gusting 4 18.9
2020-Sep-19 03:30 350 2 gusting 4 18.9
2020-Sep-19 03:25 355 2 gusting 3 18.9
2020-Sep-19 03:19 321 1 gusting 2 18.9
2020-Sep-19 03:14 321 0 gusting 2 18.9
2020-Sep-19 03:09 313 1 gusting 2 19.4
2020-Sep-19 03:04 275 19.4
2020-Sep-19 02:59 275 19.4
2020-Sep-19 02:54 309 1 gusting 4 19.4
2020-Sep-19 02:49 348 2 gusting 5 19.4
2020-Sep-19 02:44 332 3 gusting 5 19.4
2020-Sep-19 02:39 351 3 gusting 6 19.4
2020-Sep-19 02:34 336 3 gusting 6 19.4
2020-Sep-19 02:29 342 2 gusting 5 19.4
2020-Sep-19 02:25 342 1 gusting 4 19.4
2020-Sep-19 02:20 316 1 gusting 6 19.4
2020-Sep-19 02:15 301 2 gusting 6 19.4
2020-Sep-19 02:09 347 3 gusting 6 19.4
2020-Sep-19 02:05 340 4 gusting 6 19.4
2020-Sep-19 01:59 327 4 gusting 7 19.4
2020-Sep-19 01:54 355 4 gusting 7 20.0
2020-Sep-19 01:49 348 3 gusting 6 20.0
2020-Sep-19 01:44 329 2 gusting 6 20.0
2020-Sep-19 01:39 355 4 gusting 6 20.6
2020-Sep-19 01:34 341 3 gusting 5 20.6
2020-Sep-19 01:29 327 1 gusting 5 20.6
2020-Sep-19 01:24 300 20.6
2020-Sep-19 01:19 355 1 gusting 5 20.6
2020-Sep-19 01:15 348 2 gusting 5 20.0
2020-Sep-19 01:10 316 1 gusting 5 20.0
2020-Sep-19 01:05 320 0 gusting 3 20.0
2020-Sep-19 00:58 336 2 gusting 4 20.0
2020-Sep-19 00:54 305 1 gusting 4 20.0
2020-Sep-19 00:49 304 1 gusting 5 20.0
2020-Sep-19 00:44 330 2 gusting 5 20.0
2020-Sep-19 00:39 360 2 gusting 5 20.0
2020-Sep-19 00:34 346 2 gusting 5 20.0
2020-Sep-19 00:29 333 2 gusting 6 20.6
2020-Sep-19 00:24 355 2 gusting 6 20.6
2020-Sep-19 00:19 348 2 gusting 5 20.6
2020-Sep-19 00:14 325 2 gusting 3 20.6
2020-Sep-19 00:10 348 1 gusting 3 20.6
2020-Sep-19 00:05 339 1 gusting 4 20.6
2020-Sep-18 23:58 355 1 gusting 5 20.6
2020-Sep-18 23:55 329 2 gusting 5 20.6
2020-Sep-18 23:49 319 2 gusting 6 20.0
2020-Sep-18 23:44 322 3 gusting 6 20.0
2020-Sep-18 23:39 350 2 gusting 5 20.0
2020-Sep-18 23:34 318 2 gusting 6 20.0
2020-Sep-18 23:29 355 2 gusting 6 20.0
2020-Sep-18 23:24 306 3 gusting 6 20.0
2020-Sep-18 23:19 317 2 gusting 7 20.0
2020-Sep-18 23:14 326 4 gusting 7 20.0
2020-Sep-18 23:09 355 3 gusting 6 20.0
2020-Sep-18 23:04 355 3 gusting 6 20.0
2020-Sep-18 22:59 315 3 gusting 7 20.0
2020-Sep-18 22:54 348 5 gusting 7 20.6
2020-Sep-18 22:49 346 2 gusting 6 20.6
2020-Sep-18 22:45 355 3 gusting 6 20.0
2020-Sep-18 22:40 336 3 gusting 5 20.0
2020-Sep-18 22:34 331 2 gusting 5 20.0
2020-Sep-18 22:29 325 2 gusting 6 20.0
2020-Sep-18 22:24 350 2 gusting 6 20.6
2020-Sep-18 22:19 338 3 gusting 5 20.6
2020-Sep-18 22:14 360 3 gusting 6 20.6
2020-Sep-18 22:09 344 2 gusting 6 20.6
2020-Sep-18 22:04 351 4 gusting 6 20.6
2020-Sep-18 21:59 311 2 gusting 6 20.6
2020-Sep-18 21:54 325 3 gusting 6 20.6
2020-Sep-18 21:49 316 3 gusting 5 20.6
2020-Sep-18 21:44 355 0 gusting 5 20.6
2020-Sep-18 21:40 348 3 gusting 6 20.6
2020-Sep-18 21:35 329 2 gusting 6 20.6
2020-Sep-18 21:29 355 3 gusting 5 20.6
2020-Sep-18 21:24 360 1 gusting 5 20.6
2020-Sep-18 21:19 331 3 gusting 5 20.6
2020-Sep-18 21:14 360 2 gusting 4 20.6
2020-Sep-18 21:09 341 1 gusting 4 20.6
2020-Sep-18 21:04 355 2 gusting 5 20.6
2020-Sep-18 20:59 331 2 gusting 6 20.6
2020-Sep-18 20:54 325 3 gusting 7 20.6
2020-Sep-18 20:49 346 5 gusting 7 20.6
2020-Sep-18 20:44 349 2 gusting 4 20.6
2020-Sep-18 20:39 355 2 gusting 4 20.6
2020-Sep-18 20:34 005 3 gusting 6 20.6
2020-Sep-18 20:30 360 4 gusting 7 20.6
2020-Sep-18 20:23 360 4 gusting 7 20.6
2020-Sep-18 20:19 345 4 gusting 6 21.1
2020-Sep-18 20:14 360 3 gusting 6 21.1
2020-Sep-18 20:09 347 3 gusting 6 21.1
2020-Sep-18 20:04 342 4 gusting 6 21.1
2020-Sep-18 19:59 360 3 gusting 5 21.1
2020-Sep-18 19:54 355 2 gusting 4 21.1
2020-Sep-18 19:49 331 2 gusting 4 21.1
2020-Sep-18 19:44 330 3 gusting 4 21.1
2020-Sep-18 19:39 340 2 gusting 5 21.7
2020-Sep-18 19:34 307 2 gusting 5 21.7
2020-Sep-18 19:29 351 3 gusting 5 21.7
2020-Sep-18 19:24 355 3 gusting 5 21.7
2020-Sep-18 19:19 332 2 gusting 4 21.7
2020-Sep-18 19:13 360 1 gusting 4 21.7
2020-Sep-18 19:10 011 2 gusting 4 21.7
2020-Sep-18 19:05 005 0 gusting 2 21.7
2020-Sep-18 19:00 022 0 gusting 2 22.2
2020-Sep-18 18:54 022 1 gusting 2 22.2
2020-Sep-18 18:49 109 22.2
2020-Sep-18 18:44 160 22.2
2020-Sep-18 18:39 160 22.2
2020-Sep-18 18:34 160 22.2
2020-Sep-18 18:29 160 22.2
2020-Sep-18 18:24 160 22.2
2020-Sep-18 18:19 160 22.2
2020-Sep-18 18:14 160 22.2
2020-Sep-18 18:10 160 22.2
2020-Sep-18 18:04 160 22.2
2020-Sep-18 18:00 160 22.2
2020-Sep-18 17:55 160 22.8
2020-Sep-18 17:50 160 22.8
2020-Sep-18 17:44 192 22.8
2020-Sep-18 17:39 191 22.8
2020-Sep-18 17:34 191 22.8
2020-Sep-18 17:29 191 22.8
2020-Sep-18 17:24 191 0 gusting 4 22.8
2020-Sep-18 17:19 180 1 gusting 4 22.8
2020-Sep-18 17:14 242 23.3
2020-Sep-18 17:09 201 1 gusting 4 23.3
2020-Sep-18 17:04 165 1 gusting 3 23.3
2020-Sep-18 16:59 167 1 gusting 5 23.3
2020-Sep-18 16:54 141 1 gusting 5 23.3
2020-Sep-18 16:49 148 23.3
2020-Sep-18 16:45 158 0 gusting 4 23.3
2020-Sep-18 16:40 155 23.3
2020-Sep-18 16:35 169 0 gusting 4 23.3
2020-Sep-18 16:29 165 0 gusting 6 23.9
2020-Sep-18 16:24 132 0 gusting 6 23.9
2020-Sep-18 16:19 111 23.9
2020-Sep-18 16:14 212 1 gusting 4 23.9
2020-Sep-18 16:09 070 0 gusting 5 23.9
2020-Sep-18 16:04 179 1 gusting 5 24.4
2020-Sep-18 15:59 146 0 gusting 5 24.4
2020-Sep-18 15:54 159 1 gusting 9 24.4
2020-Sep-18 15:49 158 1 gusting 9 24.4
2020-Sep-18 15:44 134 1 gusting 9 24.4
2020-Sep-18 15:39 119 3 gusting 9 24.4
2020-Sep-18 15:34 120 3 gusting 12 24.4
2020-Sep-18 15:29 126 6 gusting 13 24.4
2020-Sep-18 15:23 118 5 gusting 10 25.0
2020-Sep-18 15:20 154 1 gusting 14 25.0
2020-Sep-18 15:13 131 5 gusting 11 25.0
2020-Sep-18 15:09 101 5 gusting 11 25.0
2020-Sep-18 15:04 121 5 gusting 9 25.0
2020-Sep-18 14:59 122 1 gusting 7 24.4
2020-Sep-18 14:54 188 0 gusting 9 24.4
2020-Sep-18 14:50 150 3 gusting 9 24.4
2020-Sep-18 14:45 181 0 gusting 5 24.4
2020-Sep-18 14:40 200 0 gusting 6 24.4
2020-Sep-18 14:34 152 1 gusting 7 24.4
2020-Sep-18 14:29 169 1 gusting 10 24.4
2020-Sep-18 14:24 155 1 gusting 12 24.4
2020-Sep-18 14:19 118 6 gusting 12 24.4
2020-Sep-18 14:14 155 5 gusting 12 25.0
2020-Sep-18 14:09 076 5 gusting 15 24.4
2020-Sep-18 14:05 067 4 gusting 17 24.4
2020-Sep-18 13:59 112 6 gusting 19 24.4
2020-Sep-18 13:54 061 8 gusting 19 24.4
2020-Sep-18 13:49 069 7 gusting 13 23.9
2020-Sep-18 13:44 085 6 gusting 15 23.9
2020-Sep-18 13:39 127 3 gusting 20 23.9
2020-Sep-18 13:34 098 4 gusting 16 23.3
2020-Sep-18 13:29 084 7 gusting 16 23.3
2020-Sep-18 13:25 186 6 gusting 14 22.8
2020-Sep-18 13:20 091 4 gusting 8 22.8
2020-Sep-18 13:14 205 3 gusting 6 22.2
2020-Sep-18 13:09 198 1 gusting 3 22.2
2020-Sep-18 13:05 117 0 gusting 6 22.2
2020-Sep-18 12:59 103 2 gusting 6 22.2
2020-Sep-18 12:54 162 2 gusting 6 22.2
2020-Sep-18 12:49 117 0 gusting 6 22.2
2020-Sep-18 12:44 186 2 gusting 6 22.2
2020-Sep-18 12:39 180 4 gusting 7 22.2
2020-Sep-18 12:34 097 1 gusting 6 22.2
2020-Sep-18 12:29 175 0 gusting 5 22.2
2020-Sep-18 12:24 119 1 gusting 5 22.2
2020-Sep-18 12:19 074 0 gusting 4 21.7
2020-Sep-18 12:14 176 1 gusting 6 21.7
2020-Sep-18 12:10 116 1 gusting 7 21.7
2020-Sep-18 12:04 129 5 gusting 9 21.7
2020-Sep-18 12:00 082 4 gusting 12 21.7
2020-Sep-18 11:55 116 7 gusting 12 21.7
2020-Sep-18 11:49 115 7 gusting 12 21.7
2020-Sep-18 11:44 103 5 gusting 13 21.7
2020-Sep-18 11:39 063 9 gusting 15 21.7
2020-Sep-18 11:34 135 8 gusting 15 21.7
2020-Sep-18 11:29 080 8 gusting 15 21.7
2020-Sep-18 11:24 063 5 gusting 16 21.7
2020-Sep-18 11:19 114 7 gusting 17 21.7
2020-Sep-18 11:14 146 6 gusting 19 21.7
2020-Sep-18 11:09 066 8 gusting 19 21.7
2020-Sep-18 11:04 176 6 gusting 14 21.1
2020-Sep-18 10:59 194 3 gusting 13 21.1
2020-Sep-18 10:54 128 6 gusting 13 21.1
2020-Sep-18 10:49 136 5 gusting 15 21.1
2020-Sep-18 10:45 096 6 gusting 15 21.1
2020-Sep-18 10:40 066 5 gusting 14 21.1
2020-Sep-18 10:35 051 7 gusting 16 21.7
2020-Sep-18 10:29 090 10 gusting 16 21.7
2020-Sep-18 10:24 153 5 gusting 13 21.7
2020-Sep-18 10:19 111 5 gusting 14 21.7
2020-Sep-18 10:14 115 8 gusting 14 22.2
2020-Sep-18 10:09 155 7 gusting 15 22.2
2020-Sep-18 10:04 088 8 gusting 17 22.2
2020-Sep-18 09:59 099 7 gusting 17 22.8
2020-Sep-18 09:54 124 6 gusting 13 22.2
2020-Sep-18 09:49 044 6 gusting 15 22.2
2020-Sep-18 09:44 069 7 gusting 15 21.7
2020-Sep-18 09:39 026 3 gusting 12 21.7
2020-Sep-18 09:34 109 3 gusting 12 21.7
2020-Sep-18 09:30 086 4 gusting 13 21.1
2020-Sep-18 09:25 163 5 gusting 19 21.1
2020-Sep-18 09:20 151 7 gusting 19 21.1
2020-Sep-18 09:14 121 7 gusting 19 21.1
2020-Sep-18 09:09 135 8 gusting 18 21.1
2020-Sep-18 09:04 111 7 gusting 15 21.1
2020-Sep-18 08:59 214 4 gusting 15 21.1
2020-Sep-18 08:54 125 6 gusting 23 21.1
2020-Sep-18 08:49 055 8 gusting 23 20.6
2020-Sep-18 08:44 096 6 gusting 19 20.0
2020-Sep-18 08:39 105 8 gusting 18 20.0
2020-Sep-18 08:34 088 1 gusting 4 20.0
2020-Sep-18 08:29 323 0 gusting 7 20.0
2020-Sep-18 08:24 250 1 gusting 11 20.0
2020-Sep-18 08:20 046 6 gusting 11 20.0
2020-Sep-18 08:15 047 5 gusting 10 20.0
2020-Sep-18 08:08 092 2 gusting 6 20.0
2020-Sep-18 08:05 195 4 gusting 6 20.0
2020-Sep-18 08:00 171 3 gusting 6 20.6
2020-Sep-18 07:55 203 3 gusting 6 20.6
2020-Sep-18 07:49 225 1 gusting 13 21.1
2020-Sep-18 07:44 030 10 gusting 13 21.1
2020-Sep-18 07:39 072 1 gusting 10 21.1
2020-Sep-18 07:34 108 4 gusting 13 21.1
2020-Sep-18 07:29 119 3 gusting 13 21.1
2020-Sep-18 07:24 092 5 gusting 10 21.7
2020-Sep-18 07:19 084 6 gusting 11 21.7
2020-Sep-18 07:14 090 3 gusting 11 21.7
2020-Sep-18 07:09 146 6 gusting 9 22.2
2020-Sep-18 07:04 124 5 gusting 13 22.2
2020-Sep-18 06:59 123 4 gusting 13 21.7
2020-Sep-18 06:55 025 4 gusting 9 21.1
2020-Sep-18 06:50 030 5 gusting 9 21.1
2020-Sep-18 06:43 323 0 gusting 2 21.1
2020-Sep-18 06:40 215 21.1
2020-Sep-18 06:34 218 1 gusting 3 21.1
2020-Sep-18 06:29 201 0 gusting 2 21.1
2020-Sep-18 06:24 068 21.1
2020-Sep-18 06:19 215 0 gusting 4 21.1
2020-Sep-18 06:14 205 1 gusting 4 21.1
2020-Sep-18 06:09 223 2 gusting 3 21.1
2020-Sep-18 06:04 218 1 gusting 2 21.1
2020-Sep-18 05:59 239 20.6
2020-Sep-18 05:54 238 20.6
2020-Sep-18 05:49 238 20.6
2020-Sep-18 05:44 240 0 gusting 7 20.6
2020-Sep-18 05:40 030 4 gusting 7 20.6
2020-Sep-18 05:35 316 0 gusting 7 20.6
2020-Sep-18 05:29 348 4 gusting 6 20.6
2020-Sep-18 05:24 355 2 gusting 6 20.0
2020-Sep-18 05:19 009 2 gusting 7 20.0
2020-Sep-18 05:14 005 5 gusting 7 20.0
2020-Sep-18 05:09 022 4 gusting 6 20.6
2020-Sep-18 05:04 360 2 gusting 4 20.6
2020-Sep-18 04:59 289 0 gusting 7 20.6
2020-Sep-18 04:54 355 2 gusting 7 20.6
2020-Sep-18 04:49 355 3 gusting 7 20.0
2020-Sep-18 04:44 355 5 gusting 8 20.0
2020-Sep-18 04:39 032 6 gusting 8 20.0
2020-Sep-18 04:34 348 5 gusting 9 20.0
2020-Sep-18 04:29 023 6 gusting 9 20.0
2020-Sep-18 04:25 335 6 gusting 9 19.4
2020-Sep-18 04:19 005 6 gusting 9 19.4
2020-Sep-18 04:14 344 7 gusting 9 19.4
2020-Sep-18 04:09 325 4 gusting 6 19.4
2020-Sep-18 04:04 349 2 gusting 4 19.4
2020-Sep-18 03:59 272 0 gusting 2 19.4
2020-Sep-18 03:54 254 0 gusting 9 19.4
2020-Sep-18 03:49 339 4 gusting 13 19.4
2020-Sep-18 03:44 360 7 gusting 13 18.9
2020-Sep-18 03:39 019 7 gusting 11 18.9
2020-Sep-18 03:34 014 6 gusting 8 18.9
2020-Sep-18 03:29 016 4 gusting 8 18.9
2020-Sep-18 03:23 360 4 gusting 9 18.9
2020-Sep-18 03:20 014 6 gusting 9 18.9
2020-Sep-18 03:15 024 4 gusting 6 18.9
2020-Sep-18 03:09 019 2 gusting 7 18.9
2020-Sep-18 03:03 036 3 gusting 7 18.9
2020-Sep-18 02:59 013 1 gusting 5 18.9
2020-Sep-18 02:54 316 2 gusting 5 18.9
2020-Sep-18 02:49 338 2 gusting 5 18.9
2020-Sep-18 02:44 280 2 gusting 4 18.9
2020-Sep-18 02:39 339 0 gusting 2 18.9
2020-Sep-18 02:34 090 18.9
2020-Sep-18 02:29 090 1 gusting 6 18.9
2020-Sep-18 02:24 119 3 gusting 8 18.9
2020-Sep-18 02:19 110 3 gusting 8 18.9
2020-Sep-18 02:14 019 6 gusting 8 18.9
2020-Sep-18 02:09 026 4 gusting 6 18.9
2020-Sep-18 02:04 344 2 gusting 7 18.9
2020-Sep-18 01:59 020 4 gusting 9 19.4
2020-Sep-18 01:55 019 6 gusting 9 19.4
2020-Sep-18 01:50 350 4 gusting 10 19.4
2020-Sep-18 01:44 355 6 gusting 11 19.4
2020-Sep-18 01:39 360 6 gusting 11 19.4
2020-Sep-18 01:34 032 4 gusting 9 19.4
2020-Sep-18 01:29 013 6 gusting 9 19.4
2020-Sep-18 01:24 005 6 gusting 10 19.4
2020-Sep-18 01:19 023 6 gusting 10 19.4
2020-Sep-18 01:14 053 6 gusting 11 19.4
2020-Sep-18 01:09 021 6 gusting 11 19.4
2020-Sep-18 01:04 355 8 gusting 11 19.4
2020-Sep-18 00:59 011 6 gusting 8 20.0
2020-Sep-18 00:54 005 5 gusting 8 20.0
2020-Sep-18 00:50 017 6 gusting 8 20.0
2020-Sep-18 00:43 355 2 gusting 4 20.0
2020-Sep-18 00:40 360 2 gusting 4 20.0
2020-Sep-18 00:35 340 1 gusting 4 20.6
2020-Sep-18 00:29 311 2 gusting 4 20.6
2020-Sep-18 00:24 281 0 gusting 3 20.6
2020-Sep-18 00:19 293 0 gusting 3 20.6
2020-Sep-18 00:14 053 1 gusting 2 20.6
2020-Sep-18 00:09 250 1 gusting 6 20.6
2020-Sep-18 00:04 313 4 gusting 6 20.6
2020-Sep-17 23:59 360 4 gusting 6 20.6
2020-Sep-17 23:54 355 2 gusting 8 20.6
2020-Sep-17 23:49 011 5 gusting 10 21.1
2020-Sep-17 23:44 016 6 gusting 10 21.1
2020-Sep-17 23:40 323 3 gusting 9 21.1
2020-Sep-17 23:35 306 2 gusting 9 21.1
2020-Sep-17 23:28 019 4 gusting 7 21.7
2020-Sep-17 23:24 360 4 gusting 6 21.7
2020-Sep-17 23:19 346 3 gusting 6 21.7
2020-Sep-17 23:14 005 0 gusting 4 21.7
2020-Sep-17 23:09 300 1 gusting 8 21.7
2020-Sep-17 23:04 302 2 gusting 11 21.7
2020-Sep-17 22:59 343 6 gusting 11 21.7
2020-Sep-17 22:54 005 6 gusting 9 21.7
2020-Sep-17 22:49 333 3 gusting 8 21.1
2020-Sep-17 22:44 005 4 gusting 8 21.1
2020-Sep-17 22:39 019 3 gusting 10 21.1
2020-Sep-17 22:34 329 5 gusting 10 21.1
2020-Sep-17 22:29 005 3 gusting 8 20.6
2020-Sep-17 22:25 342 4 gusting 7 20.6
2020-Sep-17 22:19 300 3 gusting 7 20.6
2020-Sep-17 22:14 360 4 gusting 7 20.6
2020-Sep-17 22:09 355 2 gusting 3 20.6
2020-Sep-17 22:04 250 20.6
2020-Sep-17 21:59 288 2 gusting 8 20.0
2020-Sep-17 21:54 005 3 gusting 9 20.0
2020-Sep-17 21:49 005 5 gusting 14 20.0
2020-Sep-17 21:44 022 7 gusting 14 20.0
2020-Sep-17 21:39 329 7 gusting 10 20.0
2020-Sep-17 21:34 005 3 gusting 5 20.0
2020-Sep-17 21:29 040 1 gusting 11 20.0
2020-Sep-17 21:24 032 6 gusting 11 20.0
2020-Sep-17 21:19 038 7 gusting 11 20.6
2020-Sep-17 21:14 360 7 gusting 11 21.1
2020-Sep-17 21:09 355 5 gusting 9 21.7
2020-Sep-17 21:04 323 3 gusting 5 21.7
2020-Sep-17 20:59 300 0 gusting 3 22.2
2020-Sep-17 20:55 307 1 gusting 3 22.8
2020-Sep-17 20:50 235 22.8
2020-Sep-17 20:44 115 3 gusting 10 23.3
2020-Sep-17 20:39 264 2 gusting 7 23.3
2020-Sep-17 20:34 340 2 gusting 5 23.3
2020-Sep-17 20:29 233 23.3
2020-Sep-17 20:24 360 4 gusting 6 23.3
2020-Sep-17 20:19 055 0 gusting 5 23.3
2020-Sep-17 20:14 005 23.3
2020-Sep-17 20:09 332 2 gusting 9 23.3
2020-Sep-17 20:04 330 2 gusting 9 23.3
2020-Sep-17 19:59 011 1 gusting 6 23.3
2020-Sep-17 19:54 114 0 gusting 6 22.8
2020-Sep-17 19:49 319 3 gusting 7 22.8
2020-Sep-17 19:44 018 0 gusting 7 22.8
2020-Sep-17 19:40 281 2 gusting 6 22.8
2020-Sep-17 19:35 242 3 gusting 8 22.8
2020-Sep-17 19:29 021 3 gusting 7 22.8
2020-Sep-17 19:24 355 1 gusting 6 22.2
2020-Sep-17 19:19 333 2 gusting 5 22.2
2020-Sep-17 19:14 309 2 gusting 5 22.2
2020-Sep-17 19:09 324 2 gusting 5 22.2
2020-Sep-17 19:04 355 3 gusting 5 22.8
2020-Sep-17 18:59 342 2 gusting 6 22.8
2020-Sep-17 18:54 348 1 gusting 6 22.8
2020-Sep-17 18:49 013 0 gusting 4 23.3
2020-Sep-17 18:44 346 1 gusting 4 23.3
2020-Sep-17 18:39 318 0 gusting 3 23.3
2020-Sep-17 18:34 250 23.3
2020-Sep-17 18:29 250 0 gusting 5 23.3
2020-Sep-17 18:25 182 0 gusting 3 23.3
2020-Sep-17 18:20 173 0 gusting 6 23.3
2020-Sep-17 18:14 199 3 gusting 6 23.3
2020-Sep-17 18:09 051 1 gusting 4 23.3
2020-Sep-17 18:04 292 23.3
2020-Sep-17 17:59 290 23.3
2020-Sep-17 17:55 360 23.3
2020-Sep-17 17:48 355 3 gusting 4 23.3
2020-Sep-17 17:44 005 0 gusting 3 23.9
2020-Sep-17 17:39 304 1 gusting 5 23.9
2020-Sep-17 17:34 104 2 gusting 5 23.9
2020-Sep-17 17:29 086 2 gusting 5 23.9
2020-Sep-17 17:24 355 0 gusting 3 23.9
2020-Sep-17 17:19 211 1 gusting 3 23.9
2020-Sep-17 17:14 126 23.9
2020-Sep-17 17:09 182 1 gusting 5 24.4
2020-Sep-17 17:04 207 1 gusting 3 24.4
2020-Sep-17 16:59 186 24.4
2020-Sep-17 16:54 186 24.4
2020-Sep-17 16:49 187 1 gusting 3 25.0
2020-Sep-17 16:44 011 25.0
2020-Sep-17 16:40 243 0 gusting 2 25.0
2020-Sep-17 16:35 221 0 gusting 2 25.0
2020-Sep-17 16:29 143 0 gusting 2 25.0
2020-Sep-17 16:24 126 25.6
2020-Sep-17 16:19 126 0 gusting 7 25.6
2020-Sep-17 16:14 154 3 gusting 7 26.1
2020-Sep-17 16:09 153 3 gusting 6 26.1
2020-Sep-17 16:04 190 3 gusting 5 26.7
2020-Sep-17 15:59 185 0 gusting 3 26.7
2020-Sep-17 15:54 211 0 gusting 3 26.7
2020-Sep-17 15:49 200 1 gusting 3 26.7
2020-Sep-17 15:44 221 26.7
2020-Sep-17 15:39 198 26.1
2020-Sep-17 15:34 218 2 gusting 5 26.1
2020-Sep-17 15:29 191 0 gusting 4 26.1
2020-Sep-17 15:24 206 0 gusting 2 26.1
2020-Sep-17 15:20 246 0 gusting 5 26.1
2020-Sep-17 15:14 250 2 gusting 5 26.1
2020-Sep-17 15:09 134 0 gusting 3 26.1
2020-Sep-17 15:05 192 26.1
2020-Sep-17 14:58 185 2 gusting 4 25.6
2020-Sep-17 14:54 187 2 gusting 6 25.6
2020-Sep-17 14:49 175 0 gusting 6 25.6
2020-Sep-17 14:44 138 0 gusting 5 25.6
2020-Sep-17 14:39 113 1 gusting 9 25.6
2020-Sep-17 14:34 109 2 gusting 9 25.6
2020-Sep-17 14:29 238 5 gusting 9 25.6
2020-Sep-17 14:24 108 3 gusting 10 26.1
2020-Sep-17 14:19 104 3 gusting 10 26.1
2020-Sep-17 14:14 227 2 gusting 7 26.1
2020-Sep-17 14:10 219 2 gusting 9 26.1
2020-Sep-17 14:04 103 2 gusting 9 25.6
2020-Sep-17 13:59 140 3 gusting 7 25.6
2020-Sep-17 13:54 162 1 gusting 6 25.6
2020-Sep-17 13:49 190 1 gusting 6 25.6
2020-Sep-17 13:44 169 2 gusting 6 25.6
2020-Sep-17 13:40 270 2 gusting 6 25.6
2020-Sep-17 13:35 206 2 gusting 6 25.6
2020-Sep-17 13:29 165 3 gusting 8 25.6
2020-Sep-17 13:24 176 2 gusting 8 26.1
2020-Sep-17 13:19 176 4 gusting 8 26.1
2020-Sep-17 13:14 147 3 gusting 8 26.1
2020-Sep-17 13:09 140 4 gusting 12 26.1
2020-Sep-17 13:04 069 5 gusting 12 26.7
2020-Sep-17 12:59 135 4 gusting 12 26.7
2020-Sep-17 12:54 157 3 gusting 8 27.2
2020-Sep-17 12:49 138 1 gusting 8 27.2
2020-Sep-17 12:44 170 3 gusting 8 26.7
2020-Sep-17 12:39 137 2 gusting 8 26.7
2020-Sep-17 12:34 225 4 gusting 6 26.7
2020-Sep-17 12:30 128 2 gusting 10 26.1
2020-Sep-17 12:25 098 4 gusting 10 26.1
2020-Sep-17 12:20 123 5 gusting 10 26.1
2020-Sep-17 12:14 113 3 gusting 10 26.7
2020-Sep-17 12:09 127 4 gusting 11 26.1
2020-Sep-17 12:05 101 5 gusting 11 26.1
2020-Sep-17 11:59 113 3 gusting 11 26.7
2020-Sep-17 11:54 142 6 gusting 11 26.7
2020-Sep-17 11:49 115 6 gusting 11 27.2
2020-Sep-17 11:44 121 2 gusting 8 27.2
2020-Sep-17 11:39 169 4 gusting 8 27.2
2020-Sep-17 11:34 105 3 gusting 8 27.2
2020-Sep-17 11:29 171 1 gusting 9 27.2
2020-Sep-17 11:24 227 1 gusting 9 26.7
2020-Sep-17 11:19 097 2 gusting 8 26.7
2020-Sep-17 11:14 110 3 gusting 8 26.7
2020-Sep-17 11:09 157 5 gusting 8 26.7
2020-Sep-17 11:04 154 2 gusting 9 26.7
2020-Sep-17 11:00 121 2 gusting 7 26.7
2020-Sep-17 10:55 114 2 gusting 7 26.7
2020-Sep-17 10:48 135 0 gusting 5 26.1
2020-Sep-17 10:44 148 0 gusting 5 26.1
2020-Sep-17 10:39 140 1 gusting 5 25.6
2020-Sep-17 10:34 129 2 gusting 5 25.6
2020-Sep-17 10:29 217 2 gusting 4 25.6
2020-Sep-17 10:24 179 1 gusting 3 25.6
2020-Sep-17 10:19 221 25.6
2020-Sep-17 10:14 253 1 gusting 4 25.6
2020-Sep-17 10:09 194 2 gusting 4 26.1
2020-Sep-17 10:04 234 0 gusting 1 25.6
2020-Sep-17 09:59 139 25.6
2020-Sep-17 09:54 139 25.6
2020-Sep-17 09:49 175 25.6
2020-Sep-17 09:45 175 0 gusting 3 25.6
2020-Sep-17 09:39 123 2 gusting 3 25.0
2020-Sep-17 09:34 095 25.0
2020-Sep-17 09:29 084 0 gusting 3 24.4
2020-Sep-17 09:24 202 24.4
2020-Sep-17 09:20 175 0 gusting 2 24.4
2020-Sep-17 09:09 235 23.9
2020-Sep-17 09:04 246 23.9